Year,Month,Day,Hour,Minute,Value (Times are PST for insolation in W/m^2)
2007,08,25,00,00,0.00
2007,08,25,00,01,0.00
2007,08,25,00,02,0.00
2007,08,25,00,03,0.00
2007,08,25,00,04,0.00
2007,08,25,00,05,0.00
2007,08,25,00,06,0.00
2007,08,25,00,07,0.00
2007,08,25,00,08,0.00
2007,08,25,00,09,0.00
2007,08,25,00,10,0.00
2007,08,25,00,11,0.00
2007,08,25,00,12,0.00
2007,08,25,00,13,0.00
2007,08,25,00,14,0.00
2007,08,25,00,15,0.00
2007,08,25,00,16,0.00
2007,08,25,00,17,0.00
2007,08,25,00,18,0.00
2007,08,25,00,19,0.00
2007,08,25,00,20,0.00
2007,08,25,00,21,0.00
2007,08,25,00,22,0.00
2007,08,25,00,23,0.00
2007,08,25,00,24,0.00
2007,08,25,00,25,0.00
2007,08,25,00,26,0.00
2007,08,25,00,27,0.00
2007,08,25,00,28,0.00
2007,08,25,00,29,0.00
2007,08,25,00,30,0.00
2007,08,25,00,31,0.00
2007,08,25,00,32,0.00
2007,08,25,00,33,0.00
2007,08,25,00,34,0.00
2007,08,25,00,35,0.00
2007,08,25,00,36,0.00
2007,08,25,00,37,0.00
2007,08,25,00,38,0.00
2007,08,25,00,39,0.00
2007,08,25,00,40,0.00
2007,08,25,00,41,0.00
2007,08,25,00,42,0.00
2007,08,25,00,43,0.00
2007,08,25,00,44,0.00
2007,08,25,00,45,0.00
2007,08,25,00,46,0.00
2007,08,25,00,47,0.00
2007,08,25,00,48,0.00
2007,08,25,00,49,0.00
2007,08,25,00,50,0.00
2007,08,25,00,51,0.00
2007,08,25,00,52,0.00
2007,08,25,00,53,0.00
2007,08,25,00,54,0.00
2007,08,25,00,55,0.00
2007,08,25,00,56,0.00
2007,08,25,00,57,0.00
2007,08,25,00,58,0.00
2007,08,25,00,59,0.00
2007,08,25,01,00,0.00
2007,08,25,01,01,0.00
2007,08,25,01,02,0.00
2007,08,25,01,03,0.00
2007,08,25,01,04,0.00
2007,08,25,01,05,0.00
2007,08,25,01,06,0.00
2007,08,25,01,07,0.00
2007,08,25,01,08,0.00
2007,08,25,01,09,0.00
2007,08,25,01,10,0.00
2007,08,25,01,11,0.00
2007,08,25,01,12,0.00
2007,08,25,01,13,0.00
2007,08,25,01,14,0.00
2007,08,25,01,15,0.00
2007,08,25,01,16,0.00
2007,08,25,01,17,0.00
2007,08,25,01,18,0.00
2007,08,25,01,19,0.00
2007,08,25,01,20,0.00
2007,08,25,01,21,0.00
2007,08,25,01,22,0.00
2007,08,25,01,23,0.00
2007,08,25,01,24,0.00
2007,08,25,01,25,0.00
2007,08,25,01,26,0.00
2007,08,25,01,27,0.00
2007,08,25,01,28,0.00
2007,08,25,01,29,0.00
2007,08,25,01,30,0.00
2007,08,25,01,31,0.00
2007,08,25,01,32,0.00
2007,08,25,01,33,0.00
2007,08,25,01,34,0.00
2007,08,25,01,35,0.00
2007,08,25,01,36,0.00
2007,08,25,01,37,0.00
2007,08,25,01,38,0.00
2007,08,25,01,39,0.00
2007,08,25,01,40,0.00
2007,08,25,01,41,0.00
2007,08,25,01,42,0.00
2007,08,25,01,43,0.00
2007,08,25,01,44,0.00
2007,08,25,01,45,0.00
2007,08,25,01,46,0.00
2007,08,25,01,47,0.00
2007,08,25,01,48,0.00
2007,08,25,01,49,0.00
2007,08,25,01,50,0.00
2007,08,25,01,51,0.00
2007,08,25,01,52,0.00
2007,08,25,01,53,0.00
2007,08,25,01,54,0.00
2007,08,25,01,55,0.00
2007,08,25,01,56,0.00
2007,08,25,01,57,0.00
2007,08,25,01,58,0.00
2007,08,25,01,59,0.00
2007,08,25,02,00,0.00
2007,08,25,02,01,0.00
2007,08,25,02,02,0.00
2007,08,25,02,03,0.00
2007,08,25,02,04,0.00
2007,08,25,02,05,0.00
2007,08,25,02,06,0.00
2007,08,25,02,07,0.00
2007,08,25,02,08,0.00
2007,08,25,02,09,0.00
2007,08,25,02,10,0.00
2007,08,25,02,11,0.00
2007,08,25,02,12,0.00
2007,08,25,02,13,0.00
2007,08,25,02,14,0.00
2007,08,25,02,15,0.00
2007,08,25,02,16,0.00
2007,08,25,02,17,0.00
2007,08,25,02,18,0.00
2007,08,25,02,19,0.00
2007,08,25,02,20,0.00
2007,08,25,02,21,0.00
2007,08,25,02,22,0.00
2007,08,25,02,23,0.00
2007,08,25,02,24,0.00
2007,08,25,02,25,0.00
2007,08,25,02,26,0.00
2007,08,25,02,27,0.00
2007,08,25,02,28,0.00
2007,08,25,02,29,0.00
2007,08,25,02,30,0.00
2007,08,25,02,31,0.00
2007,08,25,02,32,0.00
2007,08,25,02,33,0.00
2007,08,25,02,34,0.00
2007,08,25,02,35,0.00
2007,08,25,02,36,0.00
2007,08,25,02,37,0.00
2007,08,25,02,38,0.00
2007,08,25,02,39,0.00
2007,08,25,02,40,0.00
2007,08,25,02,41,0.00
2007,08,25,02,42,0.00
2007,08,25,02,43,0.00
2007,08,25,02,44,0.00
2007,08,25,02,45,0.00
2007,08,25,02,46,0.00
2007,08,25,02,47,0.00
2007,08,25,02,48,0.00
2007,08,25,02,49,0.00
2007,08,25,02,50,0.00
2007,08,25,02,51,0.00
2007,08,25,02,52,0.00
2007,08,25,02,53,0.00
2007,08,25,02,54,0.00
2007,08,25,02,55,0.00
2007,08,25,02,56,0.00
2007,08,25,02,57,0.00
2007,08,25,02,58,0.00
2007,08,25,02,59,0.00
2007,08,25,03,00,0.00
2007,08,25,03,01,0.00
2007,08,25,03,02,0.00
2007,08,25,03,03,0.00
2007,08,25,03,04,0.00
2007,08,25,03,05,0.00
2007,08,25,03,06,0.00
2007,08,25,03,07,0.00
2007,08,25,03,08,0.00
2007,08,25,03,09,0.00
2007,08,25,03,10,0.00
2007,08,25,03,11,0.00
2007,08,25,03,12,0.00
2007,08,25,03,13,0.00
2007,08,25,03,14,0.00
2007,08,25,03,15,0.00
2007,08,25,03,16,0.00
2007,08,25,03,17,0.00
2007,08,25,03,18,0.00
2007,08,25,03,19,0.00
2007,08,25,03,20,0.00
2007,08,25,03,21,0.00
2007,08,25,03,22,0.00
2007,08,25,03,23,0.00
2007,08,25,03,24,0.00
2007,08,25,03,25,0.00
2007,08,25,03,26,0.00
2007,08,25,03,27,0.00
2007,08,25,03,28,0.00
2007,08,25,03,29,0.00
2007,08,25,03,30,0.00
2007,08,25,03,31,0.00
2007,08,25,03,32,0.00
2007,08,25,03,33,0.00
2007,08,25,03,34,0.00
2007,08,25,03,35,0.00
2007,08,25,03,36,0.00
2007,08,25,03,37,0.00
2007,08,25,03,38,0.00
2007,08,25,03,39,0.00
2007,08,25,03,40,0.00
2007,08,25,03,41,0.00
2007,08,25,03,42,0.00
2007,08,25,03,43,0.00
2007,08,25,03,44,0.00
2007,08,25,03,45,0.00
2007,08,25,03,46,0.00
2007,08,25,03,47,0.00
2007,08,25,03,48,0.00
2007,08,25,03,49,0.00
2007,08,25,03,50,0.00
2007,08,25,03,51,0.00
2007,08,25,03,52,0.00
2007,08,25,03,53,0.00
2007,08,25,03,54,0.00
2007,08,25,03,55,0.00
2007,08,25,03,56,0.00
2007,08,25,03,57,0.00
2007,08,25,03,58,0.00
2007,08,25,03,59,0.00
2007,08,25,04,00,0.00
2007,08,25,04,01,0.00
2007,08,25,04,02,0.00
2007,08,25,04,03,0.00
2007,08,25,04,04,0.00
2007,08,25,04,05,0.00
2007,08,25,04,06,0.00
2007,08,25,04,07,0.00
2007,08,25,04,08,0.00
2007,08,25,04,09,0.00
2007,08,25,04,10,0.00
2007,08,25,04,11,0.00
2007,08,25,04,12,0.00
2007,08,25,04,13,0.00
2007,08,25,04,14,0.00
2007,08,25,04,15,0.00
2007,08,25,04,16,0.00
2007,08,25,04,17,0.00
2007,08,25,04,18,0.00
2007,08,25,04,19,0.00
2007,08,25,04,20,0.00
2007,08,25,04,21,0.00
2007,08,25,04,22,0.00
2007,08,25,04,23,0.00
2007,08,25,04,24,0.00
2007,08,25,04,25,0.00
2007,08,25,04,26,0.00
2007,08,25,04,27,0.00
2007,08,25,04,28,0.00
2007,08,25,04,29,0.00
2007,08,25,04,30,0.00
2007,08,25,04,31,0.00
2007,08,25,04,32,0.00
2007,08,25,04,33,0.00
2007,08,25,04,34,0.00
2007,08,25,04,35,0.00
2007,08,25,04,36,0.00
2007,08,25,04,37,0.00
2007,08,25,04,38,0.00
2007,08,25,04,39,0.00
2007,08,25,04,40,0.00
2007,08,25,04,41,0.00
2007,08,25,04,42,0.00
2007,08,25,04,43,0.00
2007,08,25,04,44,0.00
2007,08,25,04,45,0.00
2007,08,25,04,46,0.00
2007,08,25,04,47,0.00
2007,08,25,04,48,0.00
2007,08,25,04,49,0.00
2007,08,25,04,50,0.00
2007,08,25,04,51,0.00
2007,08,25,04,52,0.00
2007,08,25,04,53,0.00
2007,08,25,04,54,0.00
2007,08,25,04,55,0.00
2007,08,25,04,56,0.00
2007,08,25,04,57,0.00
2007,08,25,04,58,0.00
2007,08,25,04,59,0.00
2007,08,25,05,00,0.00
2007,08,25,05,01,0.00
2007,08,25,05,02,0.00
2007,08,25,05,03,0.00
2007,08,25,05,04,0.00
2007,08,25,05,05,0.00
2007,08,25,05,06,0.00
2007,08,25,05,07,0.00
2007,08,25,05,08,0.00
2007,08,25,05,09,0.00
2007,08,25,05,10,0.00
2007,08,25,05,11,0.00
2007,08,25,05,12,0.00
2007,08,25,05,13,0.00
2007,08,25,05,14,0.00
2007,08,25,05,15,0.00
2007,08,25,05,16,0.00
2007,08,25,05,17,0.00
2007,08,25,05,18,0.00
2007,08,25,05,19,0.00
2007,08,25,05,20,0.00
2007,08,25,05,21,0.00
2007,08,25,05,22,0.00
2007,08,25,05,23,0.00
2007,08,25,05,24,0.00
2007,08,25,05,25,0.00
2007,08,25,05,26,0.00
2007,08,25,05,27,0.00
2007,08,25,05,28,0.00
2007,08,25,05,29,0.00
2007,08,25,05,30,0.00
2007,08,25,05,31,0.00
2007,08,25,05,32,0.00
2007,08,25,05,33,0.00
2007,08,25,05,34,0.00
2007,08,25,05,35,0.00
2007,08,25,05,36,0.00
2007,08,25,05,37,0.00
2007,08,25,05,38,0.00
2007,08,25,05,39,0.00
2007,08,25,05,40,0.00
2007,08,25,05,41,0.00
2007,08,25,05,42,0.00
2007,08,25,05,43,0.00
2007,08,25,05,44,0.00
2007,08,25,05,45,0.00
2007,08,25,05,46,0.00
2007,08,25,05,47,0.00
2007,08,25,05,48,0.00
2007,08,25,05,49,0.00
2007,08,25,05,50,0.00
2007,08,25,05,51,0.00
2007,08,25,05,52,0.00
2007,08,25,05,53,0.00
2007,08,25,05,54,0.00
2007,08,25,05,55,0.00
2007,08,25,05,56,0.00
2007,08,25,05,57,0.00
2007,08,25,05,58,0.00
2007,08,25,05,59,0.00
2007,08,25,06,00,0.00
2007,08,25,06,01,0.00
2007,08,25,06,02,0.00
2007,08,25,06,03,0.00
2007,08,25,06,04,0.00
2007,08,25,06,05,0.00
2007,08,25,06,06,0.00
2007,08,25,06,07,0.00
2007,08,25,06,08,0.00
2007,08,25,06,09,0.00
2007,08,25,06,10,0.00
2007,08,25,06,11,0.00
2007,08,25,06,12,0.00
2007,08,25,06,13,0.00
2007,08,25,06,14,0.00
2007,08,25,06,15,0.00
2007,08,25,06,16,0.00
2007,08,25,06,17,0.00
2007,08,25,06,18,0.00
2007,08,25,06,19,0.00
2007,08,25,06,20,0.00
2007,08,25,06,21,0.00
2007,08,25,06,22,0.00
2007,08,25,06,23,0.00
2007,08,25,06,24,4.70
2007,08,25,06,25,5.00
2007,08,25,06,26,5.10
2007,08,25,06,27,7.00
2007,08,25,06,28,7.00
2007,08,25,06,29,7.70
2007,08,25,06,30,9.00
2007,08,25,06,31,9.90
2007,08,25,06,32,11.00
2007,08,25,06,33,11.00
2007,08,25,06,34,11.80
2007,08,25,06,35,11.20
2007,08,25,06,36,11.00
2007,08,25,06,37,12.00
2007,08,25,06,38,12.00
2007,08,25,06,39,12.00
2007,08,25,06,40,12.60
2007,08,25,06,41,14.00
2007,08,25,06,42,14.90
2007,08,25,06,43,16.00
2007,08,25,06,44,17.40
2007,08,25,06,45,18.00
2007,08,25,06,46,18.00
2007,08,25,06,47,19.00
2007,08,25,06,48,19.00
2007,08,25,06,49,19.00
2007,08,25,06,50,19.40
2007,08,25,06,51,21.00
2007,08,25,06,52,21.80
2007,08,25,06,53,23.00
2007,08,25,06,54,24.00
2007,08,25,06,55,25.00
2007,08,25,06,56,25.00
2007,08,25,06,57,25.90
2007,08,25,06,58,26.00
2007,08,25,06,59,28.00
2007,08,25,07,00,30.00
2007,08,25,07,01,30.50
2007,08,25,07,02,32.00
2007,08,25,07,03,32.40
2007,08,25,07,04,33.00
2007,08,25,07,05,33.00
2007,08,25,07,06,33.00
2007,08,25,07,07,33.00
2007,08,25,07,08,33.00
2007,08,25,07,09,33.00
2007,08,25,07,10,33.00
2007,08,25,07,11,33.50
2007,08,25,07,12,37.40
2007,08,25,07,13,39.40
2007,08,25,07,14,40.80
2007,08,25,07,15,42.00
2007,08,25,07,16,40.80
2007,08,25,07,17,40.00
2007,08,25,07,18,39.20
2007,08,25,07,19,39.00
2007,08,25,07,20,39.00
2007,08,25,07,21,39.00
2007,08,25,07,22,40.00
2007,08,25,07,23,40.00
2007,08,25,07,24,39.70
2007,08,25,07,25,38.20
2007,08,25,07,26,35.00
2007,08,25,07,27,32.50
2007,08,25,07,28,30.80
2007,08,25,07,29,30.00
2007,08,25,07,30,30.00
2007,08,25,07,31,32.00
2007,08,25,07,32,33.00
2007,08,25,07,33,35.40
2007,08,25,07,34,37.70
2007,08,25,07,35,40.70
2007,08,25,07,36,43.80
2007,08,25,07,37,48.80
2007,08,25,07,38,52.90
2007,08,25,07,39,55.40
2007,08,25,07,40,57.30
2007,08,25,07,41,59.50
2007,08,25,07,42,62.00
2007,08,25,07,43,65.20
2007,08,25,07,44,69.40
2007,08,25,07,45,73.00
2007,08,25,07,46,79.50
2007,08,25,07,47,87.10
2007,08,25,07,48,93.60
2007,08,25,07,49,98.50
2007,08,25,07,50,101.20
2007,08,25,07,51,103.40
2007,08,25,07,52,104.00
2007,08,25,07,53,104.00
2007,08,25,07,54,99.90
2007,08,25,07,55,97.60
2007,08,25,07,56,94.60
2007,08,25,07,57,93.00
2007,08,25,07,58,93.70
2007,08,25,07,59,95.00
2007,08,25,08,00,95.00
2007,08,25,08,01,95.00
2007,08,25,08,02,99.10
2007,08,25,08,03,97.80
2007,08,25,08,04,98.00
2007,08,25,08,05,100.00
2007,08,25,08,06,100.40
2007,08,25,08,07,104.60
2007,08,25,08,08,107.50
2007,08,25,08,09,109.70
2007,08,25,08,10,112.00
2007,08,25,08,11,113.50
2007,08,25,08,12,116.40
2007,08,25,08,13,118.00
2007,08,25,08,14,120.80
2007,08,25,08,15,121.00
2007,08,25,08,16,122.90
2007,08,25,08,17,123.40
2007,08,25,08,18,125.50
2007,08,25,08,19,127.40
2007,08,25,08,20,128.00
2007,08,25,08,21,129.80
2007,08,25,08,22,132.00
2007,08,25,08,23,132.00
2007,08,25,08,24,130.70
2007,08,25,08,25,133.00
2007,08,25,08,26,130.00
2007,08,25,08,27,127.40
2007,08,25,08,28,132.00
2007,08,25,08,29,132.50
2007,08,25,08,30,134.90
2007,08,25,08,31,137.70
2007,08,25,08,32,140.50
2007,08,25,08,33,143.10
2007,08,25,08,34,147.80
2007,08,25,08,35,150.40
2007,08,25,08,36,151.00
2007,08,25,08,37,158.60
2007,08,25,08,38,162.90
2007,08,25,08,39,165.00
2007,08,25,08,40,165.00
2007,08,25,08,41,164.10
2007,08,25,08,42,162.00
2007,08,25,08,43,157.90
2007,08,25,08,44,150.40
2007,08,25,08,45,149.00
2007,08,25,08,46,152.20
2007,08,25,08,47,156.80
2007,08,25,08,48,161.40
2007,08,25,08,49,165.10
2007,08,25,08,50,171.40
2007,08,25,08,51,174.40
2007,08,25,08,52,175.50
2007,08,25,08,53,173.30
2007,08,25,08,54,171.50
2007,08,25,08,55,172.90
2007,08,25,08,56,178.20
2007,08,25,08,57,187.30
2007,08,25,08,58,194.70
2007,08,25,08,59,195.00
2007,08,25,09,00,193.20
2007,08,25,09,01,195.50
2007,08,25,09,02,200.00
2007,08,25,09,03,204.90
2007,08,25,09,04,207.90
2007,08,25,09,05,209.00
2007,08,25,09,06,204.50
2007,08,25,09,07,200.20
2007,08,25,09,08,199.70
2007,08,25,09,09,206.20
2007,08,25,09,10,207.00
2007,08,25,09,11,200.40
2007,08,25,09,12,208.90
2007,08,25,09,13,258.40
2007,08,25,09,14,234.90
2007,08,25,09,15,230.70
2007,08,25,09,16,228.00
2007,08,25,09,17,241.90
2007,08,25,09,18,236.50
2007,08,25,09,19,230.60
2007,08,25,09,20,256.20
2007,08,25,09,21,239.00
2007,08,25,09,22,239.00
2007,08,25,09,23,244.20
2007,08,25,09,24,288.20
2007,08,25,09,25,303.90
2007,08,25,09,26,292.00
2007,08,25,09,27,292.00
2007,08,25,09,28,292.00
2007,08,25,09,29,383.80
2007,08,25,09,30,390.40
2007,08,25,09,31,366.10
2007,08,25,09,32,366.00
2007,08,25,09,33,410.00
2007,08,25,09,34,410.00
2007,08,25,09,35,410.00
2007,08,25,09,36,362.00
2007,08,25,09,37,252.40
2007,08,25,09,38,257.00
2007,08,25,09,39,241.10
2007,08,25,09,40,237.80
2007,08,25,09,41,238.10
2007,08,25,09,42,237.00
2007,08,25,09,43,230.20
2007,08,25,09,44,236.30
2007,08,25,09,45,238.90
2007,08,25,09,46,222.60
2007,08,25,09,47,220.70
2007,08,25,09,48,220.00
2007,08,25,09,49,221.40
2007,08,25,09,50,227.90
2007,08,25,09,51,239.80
2007,08,25,09,52,249.60
2007,08,25,09,53,257.60
2007,08,25,09,54,278.00
2007,08,25,09,55,272.00
2007,08,25,09,56,279.40
2007,08,25,09,57,310.80
2007,08,25,09,58,367.40
2007,08,25,09,59,390.50
2007,08,25,10,00,380.00
2007,08,25,10,01,340.60
2007,08,25,10,02,302.90
2007,08,25,10,03,264.40
2007,08,25,10,04,246.80
2007,08,25,10,05,262.10
2007,08,25,10,06,222.70
2007,08,25,10,07,225.10
2007,08,25,10,08,241.00
2007,08,25,10,09,292.60
2007,08,25,10,10,406.00
2007,08,25,10,11,406.00
2007,08,25,10,12,373.00
2007,08,25,10,13,302.80
2007,08,25,10,14,281.00
2007,08,25,10,15,463.20
2007,08,25,10,16,524.00
2007,08,25,10,17,524.00
2007,08,25,10,18,624.50
2007,08,25,10,19,528.00
2007,08,25,10,20,468.00
2007,08,25,10,21,548.90
2007,08,25,10,22,645.00
2007,08,25,10,23,653.80
2007,08,25,10,24,607.30
2007,08,25,10,25,593.40
2007,08,25,10,26,663.00
2007,08,25,10,27,684.00
2007,08,25,10,28,696.00
2007,08,25,10,29,692.40
2007,08,25,10,30,686.60
2007,08,25,10,31,659.80
2007,08,25,10,32,624.20
2007,08,25,10,33,647.20
2007,08,25,10,34,661.00
2007,08,25,10,35,661.00
2007,08,25,10,36,661.00
2007,08,25,10,37,652.80
2007,08,25,10,38,707.00
2007,08,25,10,39,675.00
2007,08,25,10,40,675.00
2007,08,25,10,41,675.00
2007,08,25,10,42,676.20
2007,08,25,10,43,682.30
2007,08,25,10,44,689.00
2007,08,25,10,45,692.70
2007,08,25,10,46,696.80
2007,08,25,10,47,705.40
2007,08,25,10,48,707.00
2007,08,25,10,49,707.00
2007,08,25,10,50,701.50
2007,08,25,10,51,675.90
2007,08,25,10,52,670.20
2007,08,25,10,53,669.50
2007,08,25,10,54,655.00
2007,08,25,10,55,630.50
2007,08,25,10,56,633.00
2007,08,25,10,57,661.20
2007,08,25,10,58,671.40
2007,08,25,10,59,672.60
2007,08,25,11,00,678.10
2007,08,25,11,01,684.10
2007,08,25,11,02,686.90
2007,08,25,11,03,694.60
2007,08,25,11,04,704.20
2007,08,25,11,05,711.80
2007,08,25,11,06,720.00
2007,08,25,11,07,727.30
2007,08,25,11,08,728.70
2007,08,25,11,09,735.50
2007,08,25,11,10,748.20
2007,08,25,11,11,705.00
2007,08,25,11,12,782.10
2007,08,25,11,13,786.00
2007,08,25,11,14,797.00
2007,08,25,11,15,847.80
2007,08,25,11,16,858.00
2007,08,25,11,17,858.00
2007,08,25,11,18,784.90
2007,08,25,11,19,745.00
2007,08,25,11,20,745.00
2007,08,25,11,21,894.60
2007,08,25,11,22,870.00
2007,08,25,11,23,846.90
2007,08,25,11,24,454.00
2007,08,25,11,25,525.60
2007,08,25,11,26,821.60
2007,08,25,11,27,801.20
2007,08,25,11,28,798.00
2007,08,25,11,29,798.00
2007,08,25,11,30,798.00
2007,08,25,11,31,798.00
2007,08,25,11,32,696.40
2007,08,25,11,33,671.00
2007,08,25,11,34,666.60
2007,08,25,11,35,596.00
2007,08,25,11,36,638.60
2007,08,25,11,37,781.90
2007,08,25,11,38,798.00
2007,08,25,11,39,813.30
2007,08,25,11,40,823.80
2007,08,25,11,41,838.70
2007,08,25,11,42,865.00
2007,08,25,11,43,874.00
2007,08,25,11,44,497.50
2007,08,25,11,45,431.00
2007,08,25,11,46,431.00
2007,08,25,11,47,431.00
2007,08,25,11,48,544.30
2007,08,25,11,49,752.00
2007,08,25,11,50,596.30
2007,08,25,11,51,414.80
2007,08,25,11,52,436.40
2007,08,25,11,53,420.50
2007,08,25,11,54,478.80
2007,08,25,11,55,446.00
2007,08,25,11,56,444.20
2007,08,25,11,57,475.00
2007,08,25,11,58,566.40
2007,08,25,11,59,620.70
2007,08,25,12,00,644.50
2007,08,25,12,01,680.00
2007,08,25,12,02,680.00
2007,08,25,12,03,680.00
2007,08,25,12,04,595.30
2007,08,25,12,05,607.00
2007,08,25,12,06,592.00
2007,08,25,12,07,564.00
2007,08,25,12,08,489.00
2007,08,25,12,09,544.60
2007,08,25,12,10,597.30
2007,08,25,12,11,564.70
2007,08,25,12,12,545.20
2007,08,25,12,13,524.40
2007,08,25,12,14,519.50
2007,08,25,12,15,494.00
2007,08,25,12,16,481.90
2007,08,25,12,17,527.90
2007,08,25,12,18,513.50
2007,08,25,12,19,497.90
2007,08,25,12,20,474.10
2007,08,25,12,21,446.40
2007,08,25,12,22,417.00
2007,08,25,12,23,392.40
2007,08,25,12,24,379.80
2007,08,25,12,25,375.00
2007,08,25,12,26,397.90
2007,08,25,12,27,417.70
2007,08,25,12,28,425.00
2007,08,25,12,29,439.00
2007,08,25,12,30,474.00
2007,08,25,12,31,460.50
2007,08,25,12,32,427.20
2007,08,25,12,33,403.80
2007,08,25,12,34,397.40
2007,08,25,12,35,400.10
2007,08,25,12,36,397.50
2007,08,25,12,37,389.50
2007,08,25,12,38,392.50
2007,08,25,12,39,388.00
2007,08,25,12,40,398.90
2007,08,25,12,41,409.80
2007,08,25,12,42,419.50
2007,08,25,12,43,427.50
2007,08,25,12,44,422.70
2007,08,25,12,45,410.00
2007,08,25,12,46,408.90
2007,08,25,12,47,406.50
2007,08,25,12,48,415.10
2007,08,25,12,49,434.90
2007,08,25,12,50,468.00
2007,08,25,12,51,496.20
2007,08,25,12,52,524.60
2007,08,25,12,53,505.90
2007,08,25,12,54,516.20
2007,08,25,12,55,524.00
2007,08,25,12,56,535.10
2007,08,25,12,57,551.50
2007,08,25,12,58,568.50
2007,08,25,12,59,589.10
2007,08,25,13,00,544.20
2007,08,25,13,01,541.00
2007,08,25,13,02,373.70
2007,08,25,13,03,364.90
2007,08,25,13,04,346.50
2007,08,25,13,05,351.30
2007,08,25,13,06,361.40
2007,08,25,13,07,367.70
2007,08,25,13,08,371.00
2007,08,25,13,09,374.80
2007,08,25,13,10,376.00
2007,08,25,13,11,376.00
2007,08,25,13,12,379.40
2007,08,25,13,13,400.90
2007,08,25,13,14,408.30
2007,08,25,13,15,470.90
2007,08,25,13,16,491.50
2007,08,25,13,17,448.40
2007,08,25,13,18,421.80
2007,08,25,13,19,428.40
2007,08,25,13,20,441.10
2007,08,25,13,21,463.90
2007,08,25,13,22,434.10
2007,08,25,13,23,387.00
2007,08,25,13,24,342.30
2007,08,25,13,25,280.60
2007,08,25,13,26,243.00
2007,08,25,13,27,217.90
2007,08,25,13,28,202.90
2007,08,25,13,29,197.20
2007,08,25,13,30,195.00
2007,08,25,13,31,196.50
2007,08,25,13,32,204.40
2007,08,25,13,33,218.00
2007,08,25,13,34,241.00
2007,08,25,13,35,272.00
2007,08,25,13,36,318.60
2007,08,25,13,37,374.50
2007,08,25,13,38,435.50
2007,08,25,13,39,455.60
2007,08,25,13,40,440.50
2007,08,25,13,41,463.60
2007,08,25,13,42,478.00
2007,08,25,13,43,521.60
2007,08,25,13,44,491.50
2007,08,25,13,45,454.00
2007,08,25,13,46,431.00
2007,08,25,13,47,401.60
2007,08,25,13,48,381.40
2007,08,25,13,49,389.20
2007,08,25,13,50,396.40
2007,08,25,13,51,398.00
2007,08,25,13,52,394.20
2007,08,25,13,53,403.70
2007,08,25,13,54,418.20
2007,08,25,13,55,431.20
2007,08,25,13,56,449.00
2007,08,25,13,57,513.30
2007,08,25,13,58,566.90
2007,08,25,13,59,575.20
2007,08,25,14,00,607.10
2007,08,25,14,01,661.00
2007,08,25,14,02,661.00
2007,08,25,14,03,661.00
2007,08,25,14,04,575.20
2007,08,25,14,05,552.10
2007,08,25,14,06,628.20
2007,08,25,14,07,595.60
2007,08,25,14,08,556.60
2007,08,25,14,09,612.00
2007,08,25,14,10,660.20
2007,08,25,14,11,824.50
2007,08,25,14,12,842.00
2007,08,25,14,13,842.00
2007,08,25,14,14,693.80
2007,08,25,14,15,604.00
2007,08,25,14,16,575.10
2007,08,25,14,17,624.00
2007,08,25,14,18,673.20
2007,08,25,14,19,594.00
2007,08,25,14,20,532.20
2007,08,25,14,21,475.00
2007,08,25,14,22,391.90
2007,08,25,14,23,365.10
2007,08,25,14,24,359.20
2007,08,25,14,25,351.80
2007,08,25,14,26,351.20
2007,08,25,14,27,371.80
2007,08,25,14,28,430.60
2007,08,25,14,29,439.00
2007,08,25,14,30,420.60
2007,08,25,14,31,399.50
2007,08,25,14,32,419.80
2007,08,25,14,33,405.00
2007,08,25,14,34,424.40
2007,08,25,14,35,443.20
2007,08,25,14,36,411.30
2007,08,25,14,37,368.20
2007,08,25,14,38,348.80
2007,08,25,14,39,323.50
2007,08,25,14,40,328.80
2007,08,25,14,41,335.90
2007,08,25,14,42,342.10
2007,08,25,14,43,360.90
2007,08,25,14,44,365.10
2007,08,25,14,45,368.50
2007,08,25,14,46,371.00
2007,08,25,14,47,364.40
2007,08,25,14,48,351.20
2007,08,25,14,49,344.50
2007,08,25,14,50,343.00
2007,08,25,14,51,339.00
2007,08,25,14,52,322.20
2007,08,25,14,53,306.80
2007,08,25,14,54,291.40
2007,08,25,14,55,278.10
2007,08,25,14,56,263.80
2007,08,25,14,57,252.10
2007,08,25,14,58,240.50
2007,08,25,14,59,229.10
2007,08,25,15,00,221.20
2007,08,25,15,01,214.40
2007,08,25,15,02,213.10
2007,08,25,15,03,213.00
2007,08,25,15,04,213.10
2007,08,25,15,05,214.40
2007,08,25,15,06,216.70
2007,08,25,15,07,217.10
2007,08,25,15,08,216.00
2007,08,25,15,09,213.20
2007,08,25,15,10,205.80
2007,08,25,15,11,195.60
2007,08,25,15,12,181.70
2007,08,25,15,13,172.50
2007,08,25,15,14,164.90
2007,08,25,15,15,163.00
2007,08,25,15,16,163.80
2007,08,25,15,17,167.00
2007,08,25,15,18,167.80
2007,08,25,15,19,168.10
2007,08,25,15,20,164.50
2007,08,25,15,21,162.40
2007,08,25,15,22,162.80
2007,08,25,15,23,166.00
2007,08,25,15,24,168.70
2007,08,25,15,25,171.00
2007,08,25,15,26,171.00
2007,08,25,15,27,170.60
2007,08,25,15,28,169.00
2007,08,25,15,29,169.90
2007,08,25,15,30,169.10
2007,08,25,15,31,165.70
2007,08,25,15,32,161.20
2007,08,25,15,33,160.00
2007,08,25,15,34,158.40
2007,08,25,15,35,158.00
2007,08,25,15,36,149.40
2007,08,25,15,37,147.30
2007,08,25,15,38,137.50
2007,08,25,15,39,133.40
2007,08,25,15,40,132.00
2007,08,25,15,41,126.70
2007,08,25,15,42,124.40
2007,08,25,15,43,128.20
2007,08,25,15,44,133.50
2007,08,25,15,45,145.40
2007,08,25,15,46,148.00
2007,08,25,15,47,148.90
2007,08,25,15,48,147.80
2007,08,25,15,49,147.00
2007,08,25,15,50,152.20
2007,08,25,15,51,156.30
2007,08,25,15,52,158.00
2007,08,25,15,53,156.10
2007,08,25,15,54,153.80
2007,08,25,15,55,150.20
2007,08,25,15,56,150.90
2007,08,25,15,57,151.00
2007,08,25,15,58,150.90
2007,08,25,15,59,148.80
2007,08,25,16,00,148.00
2007,08,25,16,01,147.50
2007,08,25,16,02,146.00
2007,08,25,16,03,146.00
2007,08,25,16,04,147.30
2007,08,25,16,05,148.80
2007,08,25,16,06,146.50
2007,08,25,16,07,148.80
2007,08,25,16,08,152.40
2007,08,25,16,09,147.80
2007,08,25,16,10,137.90
2007,08,25,16,11,130.90
2007,08,25,16,12,127.00
2007,08,25,16,13,129.40
2007,08,25,16,14,130.90
2007,08,25,16,15,131.10
2007,08,25,16,16,130.50
2007,08,25,16,17,130.00
2007,08,25,16,18,130.00
2007,08,25,16,19,130.00
2007,08,25,16,20,101.60
2007,08,25,16,21,103.90
2007,08,25,16,22,119.40
2007,08,25,16,23,125.00
2007,08,25,16,24,134.20
2007,08,25,16,25,146.00
2007,08,25,16,26,148.10
2007,08,25,16,27,149.00
2007,08,25,16,28,184.40
2007,08,25,16,29,205.40
2007,08,25,16,30,232.80
2007,08,25,16,31,256.20
2007,08,25,16,32,279.20
2007,08,25,16,33,300.60
2007,08,25,16,34,331.00
2007,08,25,16,35,343.50
2007,08,25,16,36,310.70
2007,08,25,16,37,282.20
2007,08,25,16,38,267.90
2007,08,25,16,39,254.30
2007,08,25,16,40,279.20
2007,08,25,16,41,253.00
2007,08,25,16,42,268.80
2007,08,25,16,43,318.70
2007,08,25,16,44,287.50
2007,08,25,16,45,289.30
2007,08,25,16,46,262.90
2007,08,25,16,47,260.10
2007,08,25,16,48,255.80
2007,08,25,16,49,260.40
2007,08,25,16,50,276.20
2007,08,25,16,51,268.50
2007,08,25,16,52,274.40
2007,08,25,16,53,321.90
2007,08,25,16,54,345.20
2007,08,25,16,55,301.20
2007,08,25,16,56,269.60
2007,08,25,16,57,269.60
2007,08,25,16,58,278.60
2007,08,25,16,59,254.20
2007,08,25,17,00,228.60
2007,08,25,17,01,225.40
2007,08,25,17,02,262.50
2007,08,25,17,03,258.00
2007,08,25,17,04,258.00
2007,08,25,17,05,243.00
2007,08,25,17,06,239.70
2007,08,25,17,07,227.10
2007,08,25,17,08,219.80
2007,08,25,17,09,216.90
2007,08,25,17,10,216.00
2007,08,25,17,11,209.20
2007,08,25,17,12,203.40